Weather History for St. Johns, AZ

Change the Weather History Date:

Wednesday, October 3, 2012

  Actual Average (KSOW) Record (KSOW)
Temperature  
Mean Temperature 58 °F -  
Max Temperature 78 °F 70 °F 84 °F (1980)
Min Temperature 39 °F 47 °F 31 °F (1971)
Degree Days  
Heating Degree Days 6    
Growing Degree Days 8 (Base 50)    
Moisture  
Dew Point 25 °F    
Average Humidity 22    
Maximum Humidity 46    
Minimum Humidity 6    
Precipitation  
Precipitation 0.00 in - - ()
Sea Level Pressure  
Sea Level Pressure 29.93 in    
Wind  
Wind Speed 7 mph (WSW)    
Max Wind Speed 18 mph    
Max Gust Speed 24 mph    
Visibility 10 miles    
Events      
Averages and records for this station are not official NWS values.
T = Trace of Precipitation, MM = Missing Value Source: NWS Daily Summary

Daily Weather History Graph

Daily Weather History Graph

Search for Another Location

Airport:

Trip Planner

Search our weather history database for the weather conditions in past years. The results will help you decide how hot, cold, wet, or windy it might be!

Date:

Astronomy

Oct. 03, 2012 Rise Set
Actual Time 6:14 AM MST 5:58 PM MST
Civil Twilight 5:48 AM MST 6:23 PM MST
Nautical Twilight 5:19 AM MST 6:52 PM MST
Astronomical Twilight 4:50 AM MST 7:21 PM MST
Moon 8:03 PM MST (10/3) 9:30 AM MST (10/3)
Length of Visible Light 12h 34m
Length of Day
11h 44m
Waning Gibbous, 88% of the Moon is Illuminated
Oct 3
Waning Gibbous
Oct 8
Last Quarter
Oct 15
New
Oct 21
First Quarter
Oct 29
Full

Hourly Weather History & Observations

Time (MST) Temp. Dew Point Humidity Pressure Visibility Wind Dir Wind Speed Gust Speed Precip Events Conditions
12:54 AM 60.1 °F 27.0 °F 28% 29.86 in 10.0 mi Variable 3.5 mph - N/A   Clear
1:54 AM 54.0 °F 27.0 °F 35% 29.88 in 10.0 mi SW 3.5 mph - N/A   Clear
2:54 AM 55.9 °F 26.1 °F 32% 29.88 in 10.0 mi SW 3.5 mph - N/A   Clear
3:54 AM 51.1 °F 27.0 °F 39% 29.90 in 10.0 mi Calm Calm - N/A   Clear
4:54 AM 48.9 °F 28.0 °F 44% 29.91 in 10.0 mi Calm Calm - N/A   Clear
5:54 AM 48.0 °F 28.0 °F 46% 29.94 in 10.0 mi South 3.5 mph - N/A   Clear
6:54 AM 50.0 °F 27.0 °F 41% 29.97 in 10.0 mi South 4.6 mph - N/A   Clear
7:54 AM 61.0 °F 28.9 °F 30% 29.96 in 10.0 mi Calm Calm - N/A   Clear
8:54 AM 70.0 °F 28.0 °F 21% 29.94 in 10.0 mi Calm Calm - N/A   Clear
9:54 AM 75.0 °F 27.0 °F 17% 29.94 in 10.0 mi NW 8.1 mph - N/A   Clear
10:54 AM 78.1 °F 24.1 °F 14% 29.93 in 10.0 mi West 10.4 mph - N/A   Clear
11:54 AM 81.0 °F 23.0 °F 12% 29.89 in 10.0 mi WNW 13.8 mph 21.9 mph N/A   Clear
12:54 PM 82.0 °F 23.0 °F 11% 29.88 in 10.0 mi West 15.0 mph 18.4 mph N/A   Clear
1:54 PM 84.0 °F 21.0 °F 10% 29.88 in 10.0 mi WNW 13.8 mph 20.7 mph N/A   Clear
2:54 PM 84.9 °F 21.0 °F 10% 29.85 in 10.0 mi WNW 11.5 mph 17.3 mph N/A   Clear
3:54 PM 84.0 °F 21.0 °F 10% 29.87 in 10.0 mi WNW 11.5 mph - N/A   Clear
4:54 PM 82.0 °F 19.9 °F 10% 29.88 in 10.0 mi West 18.4 mph 24.2 mph N/A   Clear
5:54 PM 77.0 °F 21.0 °F 12% 29.91 in 10.0 mi West 9.2 mph - N/A   Clear
6:54 PM 73.9 °F 24.1 °F 16% 29.94 in 10.0 mi SW 13.8 mph - N/A   Clear
7:54 PM 70.0 °F 25.0 °F 18% 29.94 in 10.0 mi SW 15.0 mph - N/A   Clear
8:54 PM 66.9 °F 26.1 °F 21% 29.94 in 10.0 mi SW 13.8 mph - N/A   Clear
9:54 PM 66.9 °F 25.0 °F 21% 29.93 in 10.0 mi WSW 13.8 mph - N/A   Clear
10:54 PM 66.0 °F 24.1 °F 20% 29.94 in 10.0 mi SW 13.8 mph - N/A   Clear
11:54 PM 64.9 °F 23.0 °F 20% 29.93 in 10.0 mi SW 13.8 mph - N/A   Clear